This is the latest recevied weather packets stored in our database for station/object N0HEQ. If no packets are shown the sender has not sent any weather packets the latest 10 day(s).
| Time | Temp. | Humidity | Pressure | Rain* | Wind** | Luminosity | Snow |
|---|---|---|---|---|---|---|---|
| 1777699224 | 6.67° C | 51% | 1024.6 hPa | 0 mm | - | 0 W/m² | - |
| 1777698922 | 6.67° C | 48% | 1024.6 hPa | 0 mm | - | 0 W/m² | - |
| 1777698620 | 6.67° C | 48% | 1024.5 hPa | 0 mm | - | 0 W/m² | - |
| 1777698315 | 6.67° C | 44% | 1024.8 hPa | 0 mm | - | 0 W/m² | - |
| 1777698013 | 7.22° C | 42% | 1024.6 hPa | 0 mm | - | 0 W/m² | - |
| 1777697709 | 7.22° C | 42% | 1024.6 hPa | 0 mm | - | 0 W/m² | - |
| 1777697407 | 7.22° C | 44% | 1024.6 hPa | 0 mm | - | 0 W/m² | - |
| 1777697102 | 7.22° C | 41% | 1024.5 hPa | 0 mm | - | 0 W/m² | - |
| 1777696799 | 7.22° C | 43% | 1024.6 hPa | 0 mm | - | 0 W/m² | - |
| 1777696497 | 7.78° C | 43% | 1024.3 hPa | 0 mm | - | 0 W/m² | - |
| 1777696196 | 7.78° C | 39% | 1024.3 hPa | 0 mm | - | 0 W/m² | - |
| 1777695893 | 8.33° C | 38% | 1024.5 hPa | 0 mm | - | 0 W/m² | - |
| 1777695591 | 8.89° C | 36% | 1024.5 hPa | 0 mm | - | 0 W/m² | - |
| 1777695289 | 8.89° C | 35% | 1024 hPa | 0 mm | - | 0 W/m² | - |
| 1777694985 | 9.44° C | 34% | 1024.1 hPa | 0 mm | - | 0 W/m² | - |
| 1777694682 | 10° C | 33% | 1023.9 hPa | 0 mm | - | 0 W/m² | - |
| 1777694378 | 10° C | 33% | 1024 hPa | 0 mm | - | 0 W/m² | - |
| 1777694074 | 10° C | 32% | 1024.1 hPa | 0 mm | - | 0 W/m² | - |
| 1777693772 | 9.44° C | 34% | 1024 hPa | 0 mm | - | 0 W/m² | - |
| 1777693471 | 8.89° C | 38% | 1023.8 hPa | 0 mm | - | 0 W/m² | - |
| 1777693169 | 8.89° C | 36% | 1023.8 hPa | 0 mm | - | 0 W/m² | - |
| 1777692866 | 9.44° C | 33% | 1023.5 hPa | 0 mm | - | 0 W/m² | - |
| 1777692563 | 8.89° C | 35% | 1023.5 hPa | 0 mm | - | 0 W/m² | - |
| 1777692259 | 8.89° C | 35% | 1023.4 hPa | 0 mm | - | 0 W/m² | - |
| 1777691956 | 8.89° C | 35% | 1023.3 hPa | 0 mm | - | 0 W/m² | - |
* Rain latest hour (hover to see other rain measurements)
** Current wind speed in m/s (hover to see current wind gust speed)